Saint Bonnet de Bellac- Haute Vienne - France
Donnes mto: vendredi, 28/09/2012
Date Horaire Temp. E. Hum. E. P.atmo. Pluie Vent Direction Direction Ensoleilleme Solaire P. de rose Temp au vent Rafales
28/09/2012 00:00 10,3 C 86 % 1017,8 hPa 0,0 mm 0,0 km/h (0 Bft) S 180 0 min 0 W/m 8,1 C 10,3 C 0,0 km/h (0 Bft)
28/09/2012 00:10 10,1 C 86 % 1017,9 hPa 0,0 mm 0,0 km/h (0 Bft) S-SO 202 0 min 0 W/m 7,9 C 10,1 C 0,0 km/h (0 Bft)
28/09/2012 00:20 9,9 C 87 % 1017,8 hPa 0,0 mm 0,0 km/h (0 Bft) S-SO 202 0 min 0 W/m 7,8 C 9,9 C 0,0 km/h (0 Bft)
28/09/2012 00:30 9,7 C 87 % 1017,9 hPa 0,0 mm 0,0 km/h (0 Bft) S-SO 202 0 min 0 W/m 7,6 C 9,7 C 0,0 km/h (0 Bft)
28/09/2012 00:40 9,4 C 87 % 1017,8 hPa 0,0 mm 0,0 km/h (0 Bft) S-SO 202 0 min 0 W/m 7,3 C 9,4 C 0,0 km/h (0 Bft)
28/09/2012 00:50 9,4 C 87 % 1017,8 hPa 0,0 mm 0,0 km/h (0 Bft) S-SO 202 0 min 0 W/m 7,3 C 9,4 C 0,0 km/h (0 Bft)
28/09/2012 01:00 9,3 C 88 % 1017,8 hPa 0,0 mm 0,0 km/h (0 Bft) S-SO 202 0 min 0 W/m 7,4 C 9,3 C 0,0 km/h (0 Bft)
28/09/2012 01:10 9,2 C 88 % 1017,7 hPa 0,0 mm 0,0 km/h (0 Bft) S 180 0 min 0 W/m 7,3 C 9,2 C 0,0 km/h (0 Bft)
28/09/2012 01:20 9,2 C 88 % 1017,6 hPa 0,0 mm 0,0 km/h (0 Bft) S-SO 202 0 min 0 W/m 7,3 C 9,2 C 0,0 km/h (0 Bft)
28/09/2012 01:30 9,1 C 89 % 1017,7 hPa 0,0 mm 0,0 km/h (0 Bft) S-SO 202 0 min 0 W/m 7,4 C 9,1 C 0,0 km/h (0 Bft)
28/09/2012 01:40 9,1 C 88 % 1017,7 hPa 0,0 mm 0,0 km/h (0 Bft) S-SO 202 0 min 0 W/m 7,2 C 9,1 C 0,0 km/h (0 Bft)
28/09/2012 01:50 8,9 C 89 % 1017,7 hPa 0,0 mm 0,0 km/h (0 Bft) S-SO 202 0 min 0 W/m 7,2 C 8,9 C 0,0 km/h (0 Bft)
28/09/2012 02:00 8,8 C 89 % 1017,8 hPa 0,0 mm 0,0 km/h (0 Bft) E 90 0 min 0 W/m 7,1 C 8,8 C 0,0 km/h (0 Bft)
28/09/2012 02:10 8,8 C 89 % 1017,9 hPa 0,0 mm 0,0 km/h (0 Bft) S 180 0 min 0 W/m 7,1 C 8,8 C 0,0 km/h (0 Bft)
28/09/2012 02:20 8,6 C 89 % 1018,0 hPa 0,0 mm 0,0 km/h (0 Bft) S 180 0 min 0 W/m 6,9 C 8,6 C 0,0 km/h (0 Bft)
28/09/2012 02:30 8,5 C 89 % 1017,9 hPa 0,0 mm 0,0 km/h (0 Bft) S 180 0 min 0 W/m 6,8 C 8,5 C 0,0 km/h (0 Bft)
28/09/2012 02:40 8,4 C 89 % 1017,9 hPa 0,0 mm 0,0 km/h (0 Bft) S 180 0 min 0 W/m 6,7 C 8,4 C 0,0 km/h (0 Bft)
28/09/2012 02:50 8,2 C 89 % 1018,1 hPa 0,0 mm 0,0 km/h (0 Bft) S-SE 157 0 min 0 W/m 6,5 C 8,2 C 0,0 km/h (0 Bft)
28/09/2012 03:02 8,1 C 89 % 1018,1 hPa 0,0 mm 0,0 km/h (0 Bft) S-SE 157 0 min 0 W/m 6,4 C 8,1 C 0,0 km/h (0 Bft)
28/09/2012 03:10 8,1 C 90 % 1018,0 hPa 0,0 mm 0,0 km/h (0 Bft) S-SE 157 0 min 0 W/m 6,6 C 8,1 C 0,0 km/h (0 Bft)
28/09/2012 03:20 7,9 C 90 % 1018,0 hPa 0,0 mm 0,0 km/h (0 Bft) S-SE 157 0 min 0 W/m 6,4 C 7,9 C 0,0 km/h (0 Bft)
28/09/2012 03:30 7,8 C 90 % 1017,8 hPa 0,0 mm 0,0 km/h (0 Bft) E-NE 67 0 min 0 W/m 6,3 C 7,8 C 0,0 km/h (0 Bft)
28/09/2012 03:40 7,6 C 90 % 1017,8 hPa 0,0 mm 0,0 km/h (0 Bft) NE 45 0 min 0 W/m 6,1 C 7,6 C 0,0 km/h (0 Bft)
28/09/2012 03:50 7,6 C 90 % 1017,7 hPa 0,0 mm 0,0 km/h (0 Bft) E-SE 112 0 min 0 W/m 6,1 C 7,6 C 0,0 km/h (0 Bft)
28/09/2012 04:00 7,5 C 90 % 1017,7 hPa 0,0 mm 0,0 km/h (0 Bft) E 90 0 min 0 W/m 6,0 C 7,5 C 0,0 km/h (0 Bft)
28/09/2012 04:10 7,4 C 90 % 1017,6 hPa 0,0 mm 0,0 km/h (0 Bft) E 90 0 min 0 W/m 5,9 C 7,4 C 0,0 km/h (0 Bft)
28/09/2012 04:20 7,3 C 90 % 1017,6 hPa 0,0 mm 0,0 km/h (0 Bft) E 90 0 min 0 W/m 5,8 C 7,3 C 0,0 km/h (0 Bft)
28/09/2012 04:30 7,3 C 90 % 1017,6 hPa 0,0 mm 0,0 km/h (0 Bft) E 90 0 min 0 W/m 5,8 C 7,3 C 0,0 km/h (0 Bft)
28/09/2012 04:40 7,2 C 90 % 1017,3 hPa 0,0 mm 0,0 km/h (0 Bft) E 90 0 min 0 W/m 5,7 C 7,2 C 0,0 km/h (0 Bft)
28/09/2012 04:50 7,1 C 90 % 1017,3 hPa 0,0 mm 0,0 km/h (0 Bft) SE 135 0 min 0 W/m 5,6 C 7,1 C 0,0 km/h (0 Bft)
28/09/2012 05:00 6,9 C 90 % 1017,4 hPa 0,0 mm 0,0 km/h (0 Bft) E 90 0 min 0 W/m 5,4 C 6,9 C 0,0 km/h (0 Bft)
28/09/2012 05:10 6,8 C 90 % 1017,4 hPa 0,0 mm 0,0 km/h (0 Bft) E 90 0 min 0 W/m 5,3 C 6,8 C 0,0 km/h (0 Bft)
28/09/2012 05:20 6,8 C 90 % 1017,3 hPa 0,0 mm 0,7 km/h (0 Bft) E-NE 67 0 min 0 W/m 5,3 C 6,8 C 4,0 km/h (1 Bft)
28/09/2012 05:30 6,8 C 90 % 1017,2 hPa 0,0 mm 0,4 km/h (0 Bft) E-NE 67 0 min 0 W/m 5,3 C 6,8 C 0,4 km/h (0 Bft)
28/09/2012 05:40 6,7 C 91 % 1017,3 hPa 0,0 mm 0,0 km/h (0 Bft) E-SE 112 0 min 0 W/m 5,3 C 6,7 C 0,0 km/h (0 Bft)
28/09/2012 05:50 6,6 C 91 % 1017,1 hPa 0,0 mm 0,0 km/h (0 Bft) SE 135 0 min 0 W/m 5,2 C 6,6 C 0,0 km/h (0 Bft)
28/09/2012 06:00 6,5 C 91 % 1017,2 hPa 0,0 mm 0,0 km/h (0 Bft) E-NE 67 0 min 0 W/m 5,1 C 6,5 C 0,0 km/h (0 Bft)
28/09/2012 06:10 6,4 C 91 % 1017,2 hPa 0,0 mm 0,7 km/h (0 Bft) E-SE 112 0 min 0 W/m 5,0 C 6,4 C 3,6 km/h (1 Bft)
28/09/2012 06:20 6,4 C 91 % 1017,2 hPa 0,0 mm 0,0 km/h (0 Bft) E-SE 112 0 min 0 W/m 5,0 C 6,4 C 0,0 km/h (0 Bft)
28/09/2012 06:30 6,3 C 91 % 1017,2 hPa 0,0 mm 0,0 km/h (0 Bft) E 90 0 min 0 W/m 4,9 C 6,3 C 0,0 km/h (0 Bft)
28/09/2012 06:40 6,3 C 91 % 1017,3 hPa 0,0 mm 0,0 km/h (0 Bft) E 90 0 min 0 W/m 4,9 C 6,3 C 0,0 km/h (0 Bft)
28/09/2012 06:50 6,3 C 91 % 1017,3 hPa 0,0 mm 0,0 km/h (0 Bft) E-NE 67 0 min 0 W/m 4,9 C 6,3 C 0,0 km/h (0 Bft)
28/09/2012 07:00 6,3 C 91 % 1017,4 hPa 0,0 mm 0,0 km/h (0 Bft) E-NE 67 0 min 0 W/m 4,9 C 6,3 C 0,0 km/h (0 Bft)
28/09/2012 07:10 6,1 C 91 % 1017,5 hPa 0,0 mm 0,0 km/h (0 Bft) E 90 0 min 0 W/m 4,7 C 6,1 C 0,0 km/h (0 Bft)
28/09/2012 07:20 5,8 C 90 % 1017,5 hPa 0,0 mm 0,0 km/h (0 Bft) E 90 0 min 0 W/m 4,3 C 5,8 C 0,0 km/h (0 Bft)
28/09/2012 07:30 5,6 C 91 % 1017,7 hPa 0,0 mm 0,0 km/h (0 Bft) E 90 0 min 0 W/m 4,2 C 5,6 C 0,0 km/h (0 Bft)
28/09/2012 07:40 5,4 C 91 % 1017,6 hPa 0,0 mm 0,0 km/h (0 Bft) E 90 0 min 0 W/m 4,1 C 5,4 C 0,0 km/h (0 Bft)
28/09/2012 07:50 5,3 C 91 % 1017,5 hPa 0,0 mm 0,0 km/h (0 Bft) E 90 0 min 0 W/m 4,0 C 5,3 C 0,0 km/h (0 Bft)
28/09/2012 08:00 5,2 C 91 % 1017,6 hPa 0,0 mm 0,0 km/h (0 Bft) E 90 0 min 0 W/m 3,9 C 5,2 C 0,0 km/h (0 Bft)
28/09/2012 08:10 5,3 C 92 % 1017,7 hPa 0,0 mm 1,1 km/h (1 Bft) SE 135 0 min 0 W/m 4,1 C 5,3 C 3,6 km/h (1 Bft)
28/09/2012 08:20 5,8 C 92 % 1017,7 hPa 0,0 mm 0,0 km/h (0 Bft) E-NE 67 0 min 0 W/m 4,6 C 5,8 C 0,0 km/h (0 Bft)
28/09/2012 08:30 6,1 C 92 % 1017,8 hPa 0,0 mm 3,6 km/h (1 Bft) E-SE 112 0 min 0 W/m 4,9 C 6,1 C 7,2 km/h (2 Bft)
28/09/2012 08:40 6,3 C 92 % 1017,8 hPa 0,0 mm 4,3 km/h (1 Bft) E-SE 112 0 min 0 W/m 5,1 C 6,3 C 9,0 km/h (2 Bft)
28/09/2012 08:50 6,4 C 92 % 1017,9 hPa 0,0 mm 4,0 km/h (1 Bft) E-SE 112 0 min 0 W/m 5,2 C 6,4 C 6,5 km/h (2 Bft)
28/09/2012 09:00 7,1 C 93 % 1017,9 hPa 0,0 mm 1,4 km/h (1 Bft) E 90 0 min 0 W/m 6,0 C 7,1 C 4,0 km/h (1 Bft)
28/09/2012 09:10 7,8 C 93 % 1017,9 hPa 0,0 mm 0,0 km/h (0 Bft) SE 135 0 min 0 W/m 6,7 C 7,8 C 0,0 km/h (0 Bft)
28/09/2012 09:20 8,6 C 93 % 1018,0 hPa 0,0 mm 0,0 km/h (0 Bft) SE 135 0 min 0 W/m 7,5 C 8,6 C 0,0 km/h (0 Bft)
28/09/2012 09:30 9,3 C 93 % 1018,3 hPa 0,0 mm 0,0 km/h (0 Bft) SE 135 0 min 0 W/m 8,2 C 9,3 C 0,0 km/h (0 Bft)
28/09/2012 09:40 10,2 C 93 % 1018,4 hPa 0,0 mm 0,0 km/h (0 Bft) SE 135 0 min 0 W/m 9,1 C 10,2 C 0,0 km/h (0 Bft)
28/09/2012 09:50 10,9 C 92 % 1018,5 hPa 0,0 mm 0,4 km/h (0 Bft) E-SE 112 0 min 0 W/m 9,7 C 10,9 C 0,4 km/h (0 Bft)
28/09/2012 10:00 11,7 C 90 % 1018,6 hPa 0,0 mm 0,0 km/h (0 Bft) E-SE 112 0 min 0 W/m 10,1 C 11,7 C 0,0 km/h (0 Bft)
28/09/2012 10:10 12,5 C 89 % 1018,8 hPa 0,0 mm 0,0 km/h (0 Bft) E-SE 112 0 min 0 W/m 10,7 C 12,5 C 0,0 km/h (0 Bft)
28/09/2012 10:20 13,3 C 88 % 1018,7 hPa 0,0 mm 0,0 km/h (0 Bft) E-SE 112 0 min 0 W/m 11,4 C 13,3 C 0,0 km/h (0 Bft)
28/09/2012 10:30 14,1 C 86 % 1018,6 hPa 0,0 mm 0,0 km/h (0 Bft) E-SE 112 0 min 0 W/m 11,8 C 14,1 C 3,2 km/h (1 Bft)
28/09/2012 10:40 14,9 C 84 % 1018,7 hPa 0,0 mm 0,0 km/h (0 Bft) E-SE 112 0 min 0 W/m 12,2 C 14,9 C 2,9 km/h (1 Bft)
28/09/2012 10:50 15,6 C 82 % 1018,7 hPa 0,0 mm 0,0 km/h (0 Bft) E-SE 112 0 min 0 W/m 12,5 C 15,6 C 0,0 km/h (0 Bft)
28/09/2012 11:00 16,4 C 80 % 1018,9 hPa 0,0 mm 0,0 km/h (0 Bft) NE 45 0 min 0 W/m 12,9 C 16,4 C 0,0 km/h (0 Bft)
28/09/2012 11:10 16,9 C 78 % 1018,9 hPa 0,0 mm 1,8 km/h (1 Bft) N-NE 22 0 min 0 W/m 13,0 C 16,9 C 4,3 km/h (1 Bft)
28/09/2012 11:20 17,5 C 74 % 1018,8 hPa 0,0 mm 2,9 km/h (1 Bft) NE 45 0 min 0 W/m 12,8 C 17,5 C 4,3 km/h (1 Bft)
28/09/2012 11:30 17,9 C 73 % 1018,7 hPa 0,0 mm 0,4 km/h (0 Bft) N-NE 22 0 min 0 W/m 13,0 C 17,9 C 4,0 km/h (1 Bft)
28/09/2012 11:40 18,6 C 72 % 1018,8 hPa 0,0 mm 0,0 km/h (0 Bft) NE 45 0 min 0 W/m 13,4 C 18,6 C 1,8 km/h (1 Bft)
28/09/2012 11:50 19,1 C 69 % 1018,8 hPa 0,0 mm 1,1 km/h (1 Bft) NE 45 0 min 0 W/m 13,3 C 19,1 C 4,3 km/h (1 Bft)
28/09/2012 12:00 19,8 C 66 % 1018,9 hPa 0,0 mm 2,9 km/h (1 Bft) NO 315 0 min 0 W/m 13,3 C 19,8 C 6,5 km/h (2 Bft)
28/09/2012 12:10 20,2 C 63 % 1018,9 hPa 0,0 mm 1,1 km/h (1 Bft) N-NO 337 0 min 0 W/m 12,9 C 20,2 C 3,6 km/h (1 Bft)
28/09/2012 12:20 20,4 C 61 % 1018,6 hPa 0,0 mm 0,0 km/h (0 Bft) N-NO 337 0 min 0 W/m 12,6 C 20,4 C 0,0 km/h (0 Bft)
28/09/2012 12:30 20,5 C 59 % 1018,9 hPa 0,0 mm 2,9 km/h (1 Bft) SO 225 0 min 0 W/m 12,2 C 20,5 C 4,3 km/h (1 Bft)
28/09/2012 12:40 20,3 C 61 % 1018,6 hPa 0,0 mm 0,0 km/h (0 Bft) E-NE 67 0 min 0 W/m 12,5 C 20,3 C 0,0 km/h (0 Bft)
28/09/2012 12:50 20,6 C 60 % 1018,6 hPa 0,0 mm 1,4 km/h (1 Bft) N 360 0 min 0 W/m 12,6 C 20,6 C 1,4 km/h (1 Bft)
28/09/2012 13:00 20,9 C 59 % 1018,5 hPa 0,0 mm 1,1 km/h (1 Bft) NE 45 0 min 0 W/m 12,6 C 20,9 C 4,3 km/h (1 Bft)
28/09/2012 13:10 20,9 C 58 % 1018,5 hPa 0,0 mm 0,0 km/h (0 Bft) N 360 0 min 0 W/m 12,3 C 20,9 C 0,0 km/h (0 Bft)
28/09/2012 13:20 21,3 C 55 % 1018,6 hPa 0,0 mm 0,0 km/h (0 Bft) NO 315 0 min 0 W/m 11,9 C 21,3 C 0,0 km/h (0 Bft)
28/09/2012 13:30 21,5 C 55 % 1018,6 hPa 0,0 mm 3,2 km/h (1 Bft) NE 45 0 min 0 W/m 12,1 C 21,5 C 4,0 km/h (1 Bft)
28/09/2012 13:40 21,7 C 53 % 1018,5 hPa 0,0 mm 1,1 km/h (1 Bft) N-NE 22 0 min 0 W/m 11,7 C 21,7 C 3,6 km/h (1 Bft)
28/09/2012 13:50 21,8 C 52 % 1018,4 hPa 0,0 mm 2,5 km/h (1 Bft) NO 315 0 min 0 W/m 11,5 C 21,8 C 6,5 km/h (2 Bft)
28/09/2012 14:00 21,6 C 51 % 1018,3 hPa 0,0 mm 0,0 km/h (0 Bft) N-NO 337 0 min 0 W/m 11,0 C 21,6 C 0,0 km/h (0 Bft)
28/09/2012 14:10 21,2 C 51 % 1018,1 hPa 0,0 mm 2,9 km/h (1 Bft) N 360 0 min 0 W/m 10,7 C 21,2 C 4,0 km/h (1 Bft)
28/09/2012 14:20 20,9 C 50 % 1017,9 hPa 0,0 mm 0,4 km/h (0 Bft) N-NE 22 0 min 0 W/m 10,1 C 20,9 C 3,2 km/h (1 Bft)
28/09/2012 14:30 20,6 C 51 % 1017,8 hPa 0,0 mm 0,0 km/h (0 Bft) E-NE 67 0 min 0 W/m 10,1 C 20,6 C 0,0 km/h (0 Bft)
28/09/2012 14:40 20,5 C 51 % 1017,8 hPa 0,0 mm 0,0 km/h (0 Bft) NE 45 0 min 0 W/m 10,0 C 20,5 C 0,0 km/h (0 Bft)
28/09/2012 14:50 20,5 C 50 % 1017,5 hPa 0,0 mm 0,0 km/h (0 Bft) SE 135 0 min 0 W/m 9,7 C 20,5 C 0,0 km/h (0 Bft)
28/09/2012 15:00 20,8 C 51 % 1017,3 hPa 0,0 mm 1,1 km/h (1 Bft) SE 135 0 min 0 W/m 10,3 C 20,8 C 3,2 km/h (1 Bft)
28/09/2012 15:10 20,8 C 49 % 1017,4 hPa 0,0 mm 1,8 km/h (1 Bft) S-SE 157 0 min 0 W/m 9,7 C 20,8 C 4,0 km/h (1 Bft)
28/09/2012 15:20 20,6 C 48 % 1017,4 hPa 0,0 mm 2,5 km/h (1 Bft) S-SO 202 0 min 0 W/m 9,2 C 20,6 C 4,3 km/h (1 Bft)
28/09/2012 15:30 20,4 C 49 % 1017,3 hPa 0,0 mm 3,2 km/h (1 Bft) SE 135 0 min 0 W/m 9,3 C 20,4 C 4,3 km/h (1 Bft)
28/09/2012 15:40 20,3 C 50 % 1017,2 hPa 0,0 mm 2,9 km/h (1 Bft) NE 45 0 min 0 W/m 9,5 C 20,3 C 4,3 km/h (1 Bft)
28/09/2012 15:50 20,3 C 50 % 1017,2 hPa 0,0 mm 2,5 km/h (1 Bft) NE 45 0 min 0 W/m 9,5 C 20,3 C 3,6 km/h (1 Bft)
28/09/2012 16:00 20,3 C 49 % 1017,1 hPa 0,0 mm 0,0 km/h (0 Bft) NE 45 0 min 0 W/m 9,2 C 20,3 C 0,0 km/h (0 Bft)
28/09/2012 16:10 19,9 C 49 % 1016,8 hPa 0,0 mm 2,2 km/h (1 Bft) N 360 0 min 0 W/m 8,9 C 19,9 C 4,3 km/h (1 Bft)
28/09/2012 16:20 19,9 C 49 % 1016,6 hPa 0,0 mm 1,4 km/h (1 Bft) NO 315 0 min 0 W/m 8,9 C 19,9 C 4,0 km/h (1 Bft)
28/09/2012 16:30 20,2 C 49 % 1016,5 hPa 0,0 mm 0,0 km/h (0 Bft) O 270 0 min 0 W/m 9,1 C 20,2 C 0,0 km/h (0 Bft)
28/09/2012 16:40 20,2 C 49 % 1016,4 hPa 0,0 mm 3,6 km/h (1 Bft) O-NO 292 0 min 0 W/m 9,1 C 20,2 C 4,3 km/h (1 Bft)
28/09/2012 16:50 20,2 C 49 % 1016,5 hPa 0,0 mm 1,1 km/h (1 Bft) O-NO 292 0 min 0 W/m 9,1 C 20,2 C 4,0 km/h (1 Bft)
28/09/2012 17:00 20,2 C 50 % 1016,4 hPa 0,0 mm 4,7 km/h (1 Bft) N-NE 22 0 min 0 W/m 9,4 C 20,2 C 5,8 km/h (2 Bft)
28/09/2012 17:10 20,3 C 50 % 1016,4 hPa 0,0 mm 0,0 km/h (0 Bft) N 360 0 min 0 W/m 9,5 C 20,3 C 0,0 km/h (0 Bft)
28/09/2012 17:20 20,3 C 50 % 1016,4 hPa 0,0 mm 4,3 km/h (1 Bft) NO 315 0 min 0 W/m 9,5 C 20,3 C 6,8 km/h (2 Bft)
28/09/2012 17:30 20,3 C 50 % 1016,5 hPa 0,0 mm 2,2 km/h (1 Bft) N-NO 337 0 min 0 W/m 9,5 C 20,3 C 2,2 km/h (1 Bft)
28/09/2012 17:40 20,2 C 50 % 1016,5 hPa 0,0 mm 0,4 km/h (0 Bft) N-NO 337 0 min 0 W/m 9,4 C 20,2 C 0,4 km/h (0 Bft)
28/09/2012 17:50 20,2 C 51 % 1016,5 hPa 0,0 mm 0,0 km/h (0 Bft) N-NE 22 0 min 0 W/m 9,7 C 20,2 C 0,0 km/h (0 Bft)
28/09/2012 18:00 20,0 C 50 % 1016,5 hPa 0,0 mm 1,1 km/h (1 Bft) N-NO 337 0 min 0 W/m 9,3 C 20,0 C 4,0 km/h (1 Bft)
28/09/2012 18:10 19,8 C 50 % 1016,6 hPa 0,0 mm 1,1 km/h (1 Bft) N-NE 22 0 min 0 W/m 9,1 C 19,8 C 3,6 km/h (1 Bft)
28/09/2012 18:20 19,6 C 51 % 1016,6 hPa 0,0 mm 0,4 km/h (0 Bft) N-NO 337 0 min 0 W/m 9,2 C 19,6 C 3,2 km/h (1 Bft)
28/09/2012 18:30 19,5 C 51 % 1016,7 hPa 0,0 mm 0,0 km/h (0 Bft) N-NO 337 0 min 0 W/m 9,1 C 19,5 C 0,0 km/h (0 Bft)
28/09/2012 18:40 19,3 C 52 % 1016,7 hPa 0,0 mm 0,0 km/h (0 Bft) N-NE 22 0 min 0 W/m 9,2 C 19,3 C 0,0 km/h (0 Bft)
28/09/2012 18:50 19,1 C 53 % 1016,6 hPa 0,0 mm 0,0 km/h (0 Bft) N-NE 22 0 min 0 W/m 9,3 C 19,1 C 0,0 km/h (0 Bft)
28/09/2012 19:00 18,6 C 54 % 1016,8 hPa 0,0 mm 1,1 km/h (1 Bft) NO 315 0 min 0 W/m 9,1 C 18,6 C 3,2 km/h (1 Bft)
28/09/2012 19:10 18,1 C 55 % 1016,6 hPa 0,0 mm 0,0 km/h (0 Bft) N-NO 337 0 min 0 W/m 8,9 C 18,1 C 0,0 km/h (0 Bft)
28/09/2012 19:20 17,5 C 55 % 1016,7 hPa 0,0 mm 0,0 km/h (0 Bft) N-NO 337 0 min 0 W/m 8,4 C 17,5 C 0,0 km/h (0 Bft)
28/09/2012 19:30 16,9 C 58 % 1016,8 hPa 0,0 mm 0,0 km/h (0 Bft) NO 315 0 min 0 W/m 8,6 C 16,9 C 0,0 km/h (0 Bft)
28/09/2012 19:40 16,2 C 59 % 1016,9 hPa 0,0 mm 0,0 km/h (0 Bft) NO 315 0 min 0 W/m 8,2 C 16,2 C 0,0 km/h (0 Bft)
28/09/2012 19:50 15,6 C 60 % 1016,7 hPa 0,0 mm 0,0 km/h (0 Bft) NO 315 0 min 0 W/m 7,9 C 15,6 C 0,0 km/h (0 Bft)
28/09/2012 20:00 15,0 C 62 % 1016,7 hPa 0,0 mm 0,0 km/h (0 Bft) NO 315 0 min 0 W/m 7,8 C 15,0 C 0,0 km/h (0 Bft)
28/09/2012 20:10 14,4 C 64 % 1016,9 hPa 0,0 mm 0,0 km/h (0 Bft) NO 315 0 min 0 W/m 7,7 C 14,4 C 0,0 km/h (0 Bft)
28/09/2012 20:20 13,9 C 65 % 1016,8 hPa 0,0 mm 0,0 km/h (0 Bft) NO 315 0 min 0 W/m 7,4 C 13,9 C 0,0 km/h (0 Bft)
28/09/2012 20:30 13,4 C 66 % 1016,9 hPa 0,0 mm 0,0 km/h (0 Bft) NO 315 0 min 0 W/m 7,2 C 13,4 C 0,0 km/h (0 Bft)
28/09/2012 20:40 12,9 C 67 % 1017,0 hPa 0,0 mm 0,0 km/h (0 Bft) NO 315 0 min 0 W/m 6,9 C 12,9 C 0,0 km/h (0 Bft)
28/09/2012 20:50 12,6 C 69 % 1017,1 hPa 0,0 mm 0,0 km/h (0 Bft) NO 315 0 min 0 W/m 7,1 C 12,6 C 0,0 km/h (0 Bft)
28/09/2012 21:00 12,2 C 70 % 1017,0 hPa 0,0 mm 0,0 km/h (0 Bft) NO 315 0 min 0 W/m 6,9 C 12,2 C 0,0 km/h (0 Bft)
28/09/2012 21:10 11,8 C 71 % 1017,1 hPa 0,0 mm 0,0 km/h (0 Bft) NO 315 0 min 0 W/m 6,7 C 11,8 C 0,0 km/h (0 Bft)
28/09/2012 21:20 11,6 C 72 % 1017,0 hPa 0,0 mm 0,0 km/h (0 Bft) NO 315 0 min 0 W/m 6,7 C 11,6 C 0,0 km/h (0 Bft)
28/09/2012 21:30 11,3 C 73 % 1017,1 hPa 0,0 mm 0,0 km/h (0 Bft) NO 315 0 min 0 W/m 6,6 C 11,3 C 0,0 km/h (0 Bft)
28/09/2012 21:40 11,0 C 74 % 1017,1 hPa 0,0 mm 0,0 km/h (0 Bft) NO 315 0 min 0 W/m 6,5 C 11,0 C 0,0 km/h (0 Bft)
28/09/2012 21:50 10,8 C 76 % 1017,1 hPa 0,0 mm 0,0 km/h (0 Bft) NO 315 0 min 0 W/m 6,7 C 10,8 C 0,0 km/h (0 Bft)
28/09/2012 22:00 10,6 C 76 % 1017,1 hPa 0,0 mm 0,0 km/h (0 Bft) NO 315 0 min 0 W/m 6,5 C 10,6 C 0,0 km/h (0 Bft)
28/09/2012 22:10 10,4 C 77 % 1017,2 hPa 0,0 mm 0,0 km/h (0 Bft) NO 315 0 min 0 W/m 6,5 C 10,4 C 0,0 km/h (0 Bft)
28/09/2012 22:20 10,3 C 77 % 1017,0 hPa 0,0 mm 0,0 km/h (0 Bft) NO 315 0 min 0 W/m 6,4 C 10,3 C 0,0 km/h (0 Bft)
28/09/2012 22:30 10,1 C 78 % 1017,1 hPa 0,0 mm 0,0 km/h (0 Bft) NO 315 0 min 0 W/m 6,4 C 10,1 C 0,0 km/h (0 Bft)
28/09/2012 22:40 10,0 C 79 % 1017,3 hPa 0,0 mm 0,0 km/h (0 Bft) E-NE 67 0 min 0 W/m 6,5 C 10,0 C 0,0 km/h (0 Bft)
28/09/2012 22:50 9,9 C 80 % 1017,3 hPa 0,0 mm 0,0 km/h (0 Bft) E-NE 67 0 min 0 W/m 6,6 C 9,9 C 0,0 km/h (0 Bft)
28/09/2012 23:00 9,9 C 80 % 1017,2 hPa 0,0 mm 0,0 km/h (0 Bft) E-SE 112 0 min 0 W/m 6,6 C 9,9 C 0,0 km/h (0 Bft)
28/09/2012 23:10 9,9 C 81 % 1017,2 hPa 0,0 mm 0,0 km/h (0 Bft) E-SE 112 0 min 0 W/m 6,8 C 9,9 C 2,9 km/h (1 Bft)
28/09/2012 23:20 9,9 C 82 % 1017,1 hPa 0,0 mm 0,4 km/h (0 Bft) S-SE 157 0 min 0 W/m 7,0 C 9,9 C 0,4 km/h (0 Bft)
28/09/2012 23:30 9,9 C 82 % 1017,2 hPa 0,0 mm 0,0 km/h (0 Bft) S-SE 157 0 min 0 W/m 7,0 C 9,9 C 0,0 km/h (0 Bft)
28/09/2012 23:40 9,8 C 82 % 1017,3 hPa 0,0 mm 0,0 km/h (0 Bft) E 90 0 min 0 W/m 6,9 C 9,8 C 0,0 km/h (0 Bft)
28/09/2012 23:50 9,6 C 82 % 1017,2 hPa 0,0 mm 0,0 km/h (0 Bft) E-NE 67 0 min 0 W/m 6,7 C 9,6 C 0,0 km/h (0 Bft)
_ Min-Heure 08:00 15:20 17:20 - 23:50 - - - - 08:00 08:00 23:50
Minimum _ 5,2 C 48 % 1016,4 hPa - 0,0 km/h (0 Bft) - - - - 3,9 C 5,2 C 0,0 km/h (0 Bft)
_ Max-Heure 13:50 09:40 12:30 23:50 17:00 - - 23:50 23:50 11:40 13:50 08:40
Maximum _ 21,8 C 93 % 1018,9 hPa 0,0 mm 4,7 km/h
N-NE (1 Bft)
- - 0 min 0 W/m 13,4 C 21,8 C 9,0 km/h
E-SE (2 Bft)
Moyenne _ 13,1 C 74 % 1017,6 hPa #0,0 mm 0,6 km/h (0 Bft) NO - #0 min. 0 W/m 8,1 C 13,1 C 1,2 km/h (1 Bft)
Saint Bonnet de Bellac- Haute Vienne - France